SERVIS 2 DEB, 43393

Orbit data source: Space-Track

SERVIS 2 DEB, 43393 is space debris in SSO originally from a launch on Wed, 02 Jun 2010 UTC launched from the Plesetsk Missile And Space Complex (PKMTR). Debris objects in space refer to the collection of defunct objects orbiting the Earth. Examples of debris include non-operational satellites, rocket bodies, and fragments generated from explosions, collisions, or faulty payload assembly.

Loading next visibility...
Identifier
43393, 2010-023C
Orbit
SSO
Last TLE update
3 hours ago
Origin
Manufacturer
MELCO
Mission
Spacecraft
Bus & Motor
Unknown
Mass
Unknown
Launch date (UTC)
2010-06-02 (15 years ago)
Launch vehicle
Unknown
Launch site
Plesetsk Missile And Space Complex (PKMTR)
Object type
Payload
Rocket body
Debris
Shape & HBR
Unknown
Radar Cross Section
Small (<0.1 m²)

Expand to show TLE details & history

TLE from 3 hours ago
0 SERVIS 2 DEB
1 43393U 10023C   25190.18382648  .00003357  00000-0  58388-2 0  9997
2 43393 100.6097 156.0274 0028494  53.3904 306.9839 13.44299294564340
Epoch: 2025-07-09T04:24Z
TLE epoch observation values (Epoch: 2025-07-09T04:24:42.607Z)
Latitude
-0.00003°
Longitude
162.48177°
Altitude
1,083.281 km
Speed
7.317 km/s
True Right ascension
10h 24m 06s
True Declination
0° 00' 00"
Sunlit
Object was in daylight at epoch
Visualization orbit readout
Latitude
-50.20628°
Longitude
175.55556°
Altitude
1,117.822 km
Speed
7.29 km/s
Apparent Right ascension
09h 33m 50s
Apparent Declination
-48° 12' 12"
Sunlit
Object is in daylight
Visualization observer readout
Local Sidereal Time
19:53:20
Azimuth
236.881° WSW
Elevation
-70.255°
Doppler factor
1
Orbital elements
Apogee altitude
1,111.946 km
Perigee altitude
1,069.383 km
Semi-major axis
7,468.801 km
Eccentricity
0.00285
Inclination
100.6097°
RAAN
156.0274°
Arg. of periapsis
53.3904°
True anomaly
Unknown
Mean anomaly
306.9839°
Eccentric anomaly
Unknown
Mean motion
3.36253 °/min
Orbital period
107.06 mins
BSTAR
0.0058388
Loading maneuver chart data...
Loading SW <> Apogee altitude chart data...
Loading historical data...
Loading historical data...
Loading historical data...
Loading historical data...
Loading historical data...
Loading historical data...
Loading historical data...
Other satellites on launch #23 in the year 2010 (2010-06-02 UTC)

SERVIS 2 DEB Visibility forecast

Observer location: undefined°, undefined°

Span
Click to sort rows by Start time (UTC) header in descending order
Start Az.
Max El. time (UTC)
Max El. Az.
Max El.
End time (UTC)
End Az.
12 mins2025-07-09 10:21:48.082Z23.858° NE2025-07-09 10:27:48.082Z102.516° ESE41.425°2025-07-09 10:33:48.082Z182.515° SSW
9 mins2025-07-09 12:08:48.082Z343.946° N2025-07-09 12:12:48.082Z300.167° NW22.315°2025-07-09 12:17:48.082Z250.367° W
10 mins2025-07-09 20:37:48.082Z121.237° SE2025-07-09 20:42:48.082Z57.595° ENE30.002°2025-07-09 20:47:48.082Z3.03° NNE
11 mins2025-07-09 22:22:48.082Z197.168° SSW2025-07-09 22:27:48.082Z259.928° W32.45°2025-07-09 22:33:48.082Z328.307° NNW
|